Wind_Speed
42 43 44 46 48 48 48 48 48 48 48 47 45 44 44 43 42 41 41 39 38 38 37 36 36 36 36 36 36 35 35 35 34 33 31 30 30 30 31 32 33 34 34
41 41 43 45 47 49 48 48 48 48 48 47 46 45 44 44 43 43 42 41 39 38 37 37 37 37 37 37 36 36 35 35 35 34 33 32 31 31 32 33 34 34 34
40 41 42 44 46 48 49 49 49 49 48 47 46 45 45 44 44 43 42 41 41 39 38 38 38 39 38 36 37 38 37 37 36 35 34 34 32 32 33 33 34 35 35
38 40 40 43 46 48 49 49 49 48 48 48 47 46 45 45 44 44 42 42 41 40 40 39 39 40 39 38 37 37 38 37 36 35 36 35 35 35 34 34 35 35 35
36 38 40 41 44 47 48 48 48 48 48 48 48 47 46 46 46 45 44 43 42 42 41 40 39 39 40 39 39 38 37 37 37 36 37 37 36 36 35 35 35 35 36
35 37 38 40 42 45 47 48 48 49 49 47 47 49 48 47 46 46 45 45 44 43 43 42 40 39 40 40 39 40 38 37 36 36 36 37 38 37 36 36 37 37 37
32 35 36 38 40 43 45 46 47 48 49 49 48 49 48 47 47 46 46 46 45 45 44 44 43 42 41 40 40 40 39 38 37 36 37 38 39 38 38 38 38 37 38
30 33 35 37 39 42 44 45 45 46 48 49 49 49 48 46 45 46 46 46 46 45 45 45 44 43 43 43 41 40 39 38 38 37 38 38 38 39 39 39 38 38 37
28 31 32 35 37 41 42 43 43 44 45 47 48 49 47 46 45 44 44 45 46 45 44 44 44 43 43 43 41 40 40 39 38 37 38 38 38 39 39 39 38 38 37
28 29 30 32 35 38 40 39 41 43 43 44 47 48 48 47 44 44 44 44 44 45 45 45 44 43 43 42 42 41 40 39 39 40 39 38 39 40 40 40 39 38 38
27 29 30 31 33 36 38 38 41 42 43 43 46 47 47 47 46 45 44 44 43 43 43 45 45 44 43 43 43 42 42 40 39 40 39 39 40 40 40 40 39 39 38
25 27 30 31 31 33 34 36 37 39 42 43 44 46 45 45 46 44 43 44 44 44 44 43 43 43 43 43 42 42 42 41 40 40 40 40 40 40 39 39 39 39 38
25 26 28 29 29 31 33 34 35 37 39 41 42 42 43 44 44 44 43 44 43 43 43 43 43 43 42 41 42 42 42 41 41 41 41 40 41 40 39 39 39 39 39
25 25 26 27 28 30 31 33 33 34 36 38 40 42 41 41 42 41 41 42 42 42 42 43 42 42 42 41 41 41 40 40 40 40 40 40 40 40 39 39 39 40 40
25 25 25 27 28 29 30 31 31 33 34 35 37 39 40 40 40 39 39 40 41 41 42 42 42 41 41 41 40 41 40 40 39 38 38 38 39 39 39 39 39 40 39
25 25 26 27 28 28 29 30 31 32 34 34 35 36 37 39 38 37 37 37 38 39 40 40 40 40 40 39 39 39 40 39 38 37 37 37 38 38 38 38 39 39 38
25 25 26 26 28 28 29 29 29 30 32 33 34 35 36 36 36 36 36 36 37 37 37 37 38 40 40 39 38 38 39 38 37 35 35 36 37 37 36 37 37 37 37
24 25 25 25 26 26 27 28 28 30 31 32 32 34 35 36 36 36 36 36 37 37 36 36 36 37 38 39 39 37 36 36 36 36 36 36 37 37 36 34 34 34 35
25 25 25 25 25 26 26 27 27 28 29 30 31 32 33 33 33 34 35 35 35 35 35 34 34 35 36 38 38 37 36 36 36 36 36 36 36 35 34 34 34 34 35
25 25 25 25 26 26 27 27 27 28 29 29 30 31 31 31 31 32 32 33 33 33 33 34 34 33 34 35 35 36 36 35 35 35 35 35 34 33 33 33 34 34 34
25 26 26 26 27 27 27 28 28 28 28 28 29 29 30 30 31 31 31 31 31 32 32 33 34 33 33 34 35 34 35 35 34 34 34 34 33 33 32 32 32 32 33
23 25 26 27 27 27 27 27 27 28 28 28 28 28 29 29 30 30 30 30 30 30 31 31 32 32 33 33 34 34 34 34 34 34 34 34 34 34 33 33 33 33 32
22 23 24 25 26 26 26 26 26 27 28 28 28 28 28 29 29 29 29 29 29 30 29 29 29 30 31 32 33 34 34 34 34 34 34 34 33 33 33 33 32 31 30
20 21 22 23 24 25 26 25 26 26 26 27 27 27 28 28 29 28 28 28 28 29 29 29 29 29 30 31 32 32 33 34 34 34 34 34 33 33 33 32 31 30 30
19 20 21 21 22 23 25 25 25 25 25 26 27 27 27 28 28 28 28 28 27 28 29 29 29 30 30 31 32 32 32 32 33 33 33 33 32 31 30 29 29 29 28
20 19 19 20 21 22 23 25 25 26 26 26 26 27 27 27 27 27 28 28 28 28 28 29 29 29 29 30 30 31 31 31 32 32 32 31 30 29 29 28 28 28 28
Wind_Direction
242 242 240 238 237 237 236 235 235 236 238 239 240 242 243 245 244 244 244 245 248 250 251 252 250 251 253 254 256 257 258 259 260 262 264 269 271 274 278 282 284 287 287
242 242 241 239 237 236 236 235 236 236 237 238 239 242 243 244 244 243 243 246 248 249 250 252 250 250 252 255 257 259 258 260 261 262 265 268 271 274 277 281 284 286 287
244 243 242 239 237 236 235 235 237 238 238 238 238 241 241 242 243 242 244 245 246 248 250 251 250 250 252 255 257 258 260 261 262 262 265 267 269 273 277 281 283 285 287
244 243 241 240 238 236 235 235 237 238 238 238 239 242 242 242 242 243 243 244 245 247 249 251 251 251 252 254 257 259 260 261 261 262 264 268 271 274 277 280 283 285 287
245 243 241 239 238 237 236 235 236 237 238 239 240 241 243 243 243 243 244 244 245 247 249 250 251 252 253 255 258 259 261 261 263 265 266 267 271 275 278 281 283 284 286
246 244 243 241 240 238 237 236 236 237 237 238 241 241 243 244 243 243 244 244 245 247 248 249 250 251 254 255 258 259 261 263 264 266 267 269 271 275 278 280 282 284 286
247 245 243 243 242 239 237 237 238 239 239 239 240 241 242 243 243 244 244 244 245 247 249 251 251 252 253 255 258 259 261 263 263 265 267 269 272 276 278 281 282 284 286
250 248 246 245 242 240 238 237 239 239 240 241 241 241 241 243 242 243 244 244 245 247 249 250 250 252 254 255 258 260 261 262 264 266 268 271 274 276 277 280 282 284 285
251 249 248 246 243 242 240 239 239 240 240 241 241 240 241 242 242 242 243 245 245 246 248 249 250 251 253 255 257 258 259 262 264 265 268 271 274 278 278 278 281 284 285
253 252 251 248 245 242 240 240 241 242 242 242 241 241 241 241 241 243 244 245 246 248 249 249 248 249 252 254 256 257 259 260 262 266 269 272 276 276 278 279 280 282 285
253 254 254 252 248 243 241 243 244 243 244 243 242 241 241 242 243 244 244 245 246 249 250 249 249 250 252 254 255 257 259 260 263 265 268 272 275 276 277 278 279 281 283
259 259 256 255 250 244 243 244 245 245 245 244 243 242 241 243 243 245 246 247 248 250 250 249 250 251 253 255 257 257 259 260 263 265 269 272 273 274 275 277 279 281 283
265 264 260 256 251 248 247 247 247 249 248 244 244 243 243 243 243 246 248 249 250 251 251 250 251 253 254 256 256 257 260 261 263 266 269 270 272 272 274 277 278 281 283
267 265 261 255 256 253 250 251 251 250 248 245 245 244 244 243 244 246 248 249 250 252 252 251 252 253 253 255 256 257 259 261 263 266 268 270 271 272 273 275 279 281 283
265 264 260 260 259 256 254 254 253 251 249 246 245 245 243 243 243 245 247 248 250 251 253 253 253 252 252 254 255 256 259 262 264 265 267 269 271 272 274 276 278 282 285
264 264 262 260 259 257 257 258 255 252 248 244 244 243 242 241 242 244 246 247 248 250 252 253 252 251 251 252 253 256 258 260 262 263 265 267 270 273 275 277 279 282 285
264 263 262 258 257 257 258 259 256 251 248 244 243 241 240 240 241 243 245 246 247 249 248 249 250 251 251 252 254 256 256 258 259 262 265 269 272 274 275 278 280 283 286
265 263 260 260 258 258 259 256 255 251 247 244 242 241 241 242 243 244 246 246 247 247 248 249 250 251 251 252 253 253 255 257 259 262 265 269 272 273 275 277 280 282 285
265 265 262 261 259 259 258 255 253 250 246 245 244 244 244 244 244 245 247 247 247 247 247 247 249 251 251 251 251 252 256 258 259 261 265 268 271 272 274 276 279 281 283
264 264 262 261 261 262 259 256 253 250 248 247 245 244 243 243 244 245 247 248 248 248 247 247 249 250 250 250 251 254 258 259 260 263 265 268 270 271 273 275 277 280 282
266 264 262 260 262 263 261 257 253 251 249 248 247 245 244 243 243 243 245 248 249 249 249 249 249 250 251 251 253 256 258 259 261 263 265 268 269 271 273 275 278 280 282
269 266 262 261 262 263 260 255 251 249 248 248 248 246 245 242 241 242 245 248 250 251 251 251 250 251 251 253 254 256 258 259 260 261 264 267 269 271 274 276 278 281 282
272 270 266 263 261 261 258 253 251 249 248 248 247 247 246 244 242 243 245 247 249 250 250 250 250 252 252 254 255 257 258 258 259 261 263 267 269 271 273 275 278 280 281
275 271 266 264 262 259 255 253 251 249 249 248 248 247 246 245 244 245 246 247 249 250 251 250 250 252 254 255 256 258 259 260 260 261 263 266 269 271 272 274 276 279 280
280 275 269 265 262 259 257 256 253 250 248 247 247 247 246 246 246 246 246 246 249 251 250 250 252 254 255 256 258 260 260 260 261 262 264 266 268 268 268 271 275 278 280
281 279 274 268 265 261 259 256 254 252 250 249 249 248 247 246 246 246 246 247 249 251 251 251 253 253 255 257 258 259 260 261 263 263 263 265 266 265 266 269 273 276 279
Height
5669 5673 5677 5682 5687 5692 5698 5703 5708 5712 5717 5721 5726 5729 5733 5737 5740 5743 5746 5749 5752 5755 5758 5760 5763 5765 5768 5770 5772 5774 5776 5778 5779 5781 5783 5784 5784 5784 5783 5782 5781 5780 5778
5659 5663 5667 5672 5677 5683 5688 5692 5697 5702 5707 5711 5716 5720 5724 5728 5731 5734 5737 5740 5743 5747 5750 5752 5755 5758 5760 5762 5764 5766 5767 5770 5771 5773 5774 5776 5777 5776 5776 5775 5774 5772 5770
5650 5654 5658 5662 5667 5672 5678 5682 5687 5692 5697 5701 5706 5710 5714 5718 5722 5725 5729 5732 5735 5738 5741 5744 5746 5749 5752 5754 5756 5758 5760 5762 5763 5765 5766 5767 5768 5768 5768 5767 5765 5764 5762
5641 5645 5649 5653 5657 5662 5667 5672 5677 5682 5687 5691 5696 5700 5705 5709 5713 5717 5720 5723 5727 5730 5733 5735 5738 5741 5743 5746 5747 5749 5752 5753 5755 5756 5757 5759 5759 5760 5760 5759 5757 5756 5754
5633 5637 5640 5644 5648 5652 5657 5662 5667 5673 5677 5682 5686 5691 5695 5700 5703 5707 5711 5714 5718 5721 5724 5727 5730 5732 5735 5737 5739 5741 5743 5744 5746 5748 5749 5750 5750 5750 5751 5751 5750 5748 5746
5625 5628 5631 5635 5639 5643 5648 5653 5657 5663 5668 5673 5677 5682 5686 5690 5694 5698 5701 5705 5709 5712 5715 5718 5721 5723 5726 5728 5731 5733 5735 5736 5738 5739 5740 5741 5742 5742 5742 5742 5741 5740 5738
5618 5621 5624 5627 5630 5634 5639 5644 5648 5653 5658 5663 5668 5672 5677 5680 5685 5689 5692 5696 5699 5703 5706 5709 5712 5715 5717 5720 5722 5724 5726 5728 5729 5730 5732 5732 5733 5733 5733 5732 5732 5731 5730
5612 5614 5617 5620 5623 5626 5630 5635 5639 5644 5649 5654 5658 5663 5667 5671 5675 5679 5682 5686 5690 5693 5696 5700 5702 5705 5708 5711 5713 5716 5717 5719 5720 5722 5723 5724 5724 5724 5724 5723 5723 5722 5721
5606 5608 5610 5612 5616 5619 5622 5626 5631 5635 5640 5644 5648 5653 5657 5661 5665 5669 5672 5676 5680 5683 5686 5689 5693 5696 5699 5701 5704 5707 5709 5710 5712 5713 5714 5714 5715 5715 5715 5714 5713 5713 5712
5600 5601 5603 5605 5608 5611 5614 5617 5622 5626 5630 5634 5638 5643 5647 5651 5655 5659 5663 5667 5670 5674 5677 5680 5683 5686 5689 5692 5695 5697 5699 5700 5702 5704 5704 5705 5705 5705 5705 5705 5704 5703 5703
5594 5595 5597 5599 5601 5603 5606 5610 5613 5617 5620 5624 5629 5633 5638 5642 5646 5650 5654 5657 5661 5664 5667 5670 5673 5676 5679 5682 5685 5687 5689 5691 5693 5694 5695 5695 5696 5696 5696 5696 5695 5694 5693
5587 5588 5590 5592 5594 5596 5599 5602 5605 5609 5612 5616 5620 5624 5628 5632 5636 5640 5644 5648 5651 5654 5657 5660 5664 5667 5670 5672 5675 5677 5679 5681 5683 5684 5685 5686 5686 5687 5687 5686 5686 5685 5683
5582 5582 5583 5585 5587 5590 5592 5594 5597 5600 5603 5607 5610 5614 5619 5623 5627 5631 5634 5638 5641 5645 5647 5650 5654 5657 5660 5663 5665 5668 5670 5672 5673 5674 5675 5676 5677 5677 5677 5677 5676 5675 5674
5576 5577 5578 5579 5580 5583 5585 5587 5589 5592 5594 5598 5601 5606 5610 5614 5618 5621 5625 5628 5632 5635 5638 5641 5644 5647 5650 5653 5656 5658 5660 5662 5664 5665 5666 5667 5667 5667 5667 5667 5667 5666 5665
5570 5571 5572 5573 5575 5576 5578 5579 5581 5583 5586 5589 5593 5597 5601 5605 5608 5612 5616 5619 5623 5626 5629 5632 5635 5638 5641 5643 5646 5649 5651 5653 5654 5655 5656 5657 5658 5658 5658 5658 5657 5656 5655
5564 5565 5566 5567 5568 5570 5571 5572 5573 5575 5578 5581 5585 5588 5592 5596 5600 5603 5607 5610 5613 5617 5620 5623 5626 5629 5631 5634 5636 5639 5642 5643 5645 5646 5647 5648 5649 5649 5648 5648 5647 5647 5646
5559 5559 5560 5561 5562 5563 5564 5565 5566 5568 5570 5573 5576 5580 5583 5587 5591 5595 5599 5602 5605 5608 5611 5614 5617 5620 5622 5625 5627 5630 5632 5634 5636 5637 5638 5639 5640 5640 5639 5639 5638 5637 5636
5552 5553 5553 5554 5555 5557 5558 5558 5559 5561 5563 5566 5569 5572 5576 5579 5583 5587 5590 5593 5596 5599 5602 5605 5608 5611 5613 5616 5618 5621 5623 5625 5627 5628 5630 5631 5631 5631 5631 5630 5630 5628 5627
5545 5546 5547 5548 5549 5550 5551 5552 5553 5555 5557 5559 5562 5565 5568 5572 5575 5579 5582 5585 5588 5591 5593 5596 5599 5602 5604 5607 5610 5612 5615 5616 5618 5619 5620 5621 5622 5622 5622 5622 5622 5620 5618
5539 5539 5540 5541 5542 5543 5544 5545 5546 5548 5550 5553 5555 5558 5561 5564 5567 5570 5573 5576 5579 5582 5585 5587 5590 5593 5595 5598 5601 5603 5606 5608 5609 5611 5611 5612 5613 5613 5612 5613 5612 5611 5609
5532 5532 5533 5534 5535 5536 5537 5538 5539 5541 5543 5545 5548 5550 5553 5557 5560 5563 5566 5568 5571 5574 5576 5580 5582 5585 5587 5590 5592 5594 5596 5598 5600 5601 5602 5603 5603 5604 5603 5603 5603 5602 5600
5525 5526 5526 5527 5528 5529 5529 5531 5532 5534 5536 5538 5541 5543 5546 5549 5552 5555 5558 5561 5563 5566 5568 5571 5574 5576 5578 5580 5583 5586 5588 5589 5591 5593 5594 5594 5595 5595 5594 5594 5593 5593 5591
5519 5519 5519 5520 5521 5521 5522 5524 5525 5527 5529 5531 5534 5536 5538 5541 5544 5547 5550 5553 5555 5558 5560 5563 5565 5568 5570 5572 5574 5576 5579 5580 5582 5583 5585 5585 5586 5586 5586 5585 5584 5584 5583
5513 5513 5513 5513 5514 5514 5515 5516 5518 5519 5522 5524 5526 5529 5531 5534 5536 5539 5542 5545 5547 5550 5552 5554 5557 5559 5561 5564 5565 5567 5569 5571 5573 5574 5575 5576 5576 5577 5577 5576 5576 5575 5574
5507 5507 5506 5507 5507 5508 5508 5510 5511 5513 5515 5517 5519 5522 5524 5526 5529 5531 5534 5537 5539 5541 5544 5546 5549 5551 5553 5555 5557 5558 5560 5561 5563 5565 5566 5567 5568 5568 5568 5569 5568 5568 5567
5502 5501 5500 5500 5501 5501 5502 5503 5504 5506 5508 5510 5512 5514 5516 5518 5521 5523 5526 5528 5531 5533 5536 5538 5540 5542 5544 5546 5548 5549 5551 5552 5554 5556 5557 5558 5559 5560 5560 5561 5561 5560 5559